This is the latest recevied weather packets stored in our database for station/object K5NWZ. If no packets are shown the sender has not sent any weather packets the latest 10 day(s).
| Time | Temp. | Humidity | Pressure | Rain* | Wind** | Luminosity | Snow |
|---|---|---|---|---|---|---|---|
| 1788109657 | 26.67° C | 35% | 1027 hPa | 0 mm | - | 315 W/m² | - |
| 1788109357 | 26.67° C | 38% | 1027.2 hPa | 0 mm | - | 292 W/m² | - |
| 1788109055 | 25.56° C | 40% | 1027.2 hPa | 0 mm | - | 550 W/m² | - |
| 1788108751 | 26.11° C | 39% | 1027 hPa | 0 mm | - | 334 W/m² | - |
| 1788108448 | 26.11° C | 40% | 1027.2 hPa | 0 mm | - | 371 W/m² | - |
| 1788108143 | 25.56° C | 41% | 1027.2 hPa | 0 mm | - | 449 W/m² | - |
| 1788107840 | 26.11° C | 39% | 1027.2 hPa | 0 mm | - | 312 W/m² | - |
| 1788107535 | 25.56° C | 40% | 1027.2 hPa | 0 mm | - | 336 W/m² | - |
| 1788107230 | 25° C | 41% | 1026.9 hPa | 0 mm | - | 304 W/m² | - |
| 1788106926 | 25° C | 41% | 1027.3 hPa | 0 mm | - | 280 W/m² | - |
| 1788106621 | 24.44° C | 42% | 1027.3 hPa | 0 mm | - | 232 W/m² | - |
| 1788106315 | 24.44° C | 43% | 1027.4 hPa | 0 mm | - | 244 W/m² | - |
| 1788106011 | 24.44° C | 44% | 1027.4 hPa | 0 mm | - | 291 W/m² | - |
| 1788105711 | 24.44° C | 46% | 1027.5 hPa | 0 mm | - | 306 W/m² | - |
| 1788105408 | 23.89° C | 50% | 1027.5 hPa | 0 mm | - | 386 W/m² | - |
| 1788105104 | 25° C | 48% | 1027.4 hPa | 0 mm | - | 344 W/m² | - |
| 1788104799 | 24.44° C | 45% | 1027.7 hPa | 0 mm | - | 294 W/m² | - |
| 1788104495 | 24.44° C | 44% | 1027.7 hPa | 0 mm | - | 325 W/m² | - |
| 1788104191 | 23.33° C | 46% | 1027.9 hPa | 0 mm | - | 240 W/m² | - |
| 1788103891 | 22.78° C | 51% | 1027.7 hPa | 0 mm | - | 216 W/m² | - |
| 1788103590 | 22.22° C | 56% | 1027.7 hPa | 0 mm | - | 213 W/m² | - |
| 1788103288 | 21.67° C | 57% | 1027.4 hPa | 0 mm | - | 167 W/m² | - |
| 1788102984 | 21.67° C | 59% | 1027.6 hPa | 0 mm | - | 152 W/m² | - |
| 1788102678 | 21.11° C | 61% | 1027.7 hPa | 0 mm | - | 131 W/m² | - |
| 1788102378 | 20.56° C | 61% | 1027.5 hPa | 0 mm | - | 96 W/m² | - |
* Rain latest hour (hover to see other rain measurements)
** Current wind speed in m/s (hover to see current wind gust speed)